Powrót do katalogu

SL-14 DEB

AktywnyPO
NORAD 45287·DEBRIS·🇷🇺 Russia

Wystrzelony Aug 15, 1991 z Plesetsk Cosmodrome

Loading…

Następne Przeloty (najbliższe 24 godziny)

TLE

ŚwieżeSource: Space-Track

Epoka: Sep 13, 2026, 20:52 UTC

1 45287U 91056Z   26256.86975174  .00000301  00000-0  57965-3 0  9994
2 45287  82.5715  36.1369 0070574  48.6188 312.0982 13.33084038319340

Śledź SL-14 DEB w czasie rzeczywistym z AllMySat

Download on the App Store